Location: Newark
(45.2500°N, 7.5833°E)
Time: 01:34:10
(UTC+00:00)

SR - Pass Details

Date: 28 January 2020
Orbit: 575 x 881 km, 66.7° (Epoch: 21 February)

Event Time Altitude Azimuth Distance (km) Brightness Sun altitude
Exits shadow 03:41:23 14° 10° (N) 2,145 ? -34.1°
Maximum altitude 03:43:03 16° 30° (NNE) 2,018 ? -33.8°
Drops below altitude 10° 03:46:21 10° 68° (ENE) 2,351 ? -33.2°
Sets 03:49:38 0° 90° (E) 3,210 ? -32.6°
